Time,TemperatureF,DewpointF,PressureIn,WindDirection,WindDirectionDegrees,WindSpeedMPH,WindSpeedGustMPH,Humidity,HourlyPrecipIn,Conditions,Clouds,dailyrainin,SoftwareType,DateUTC
2013-10-05 00:00:00,64.0,63.4,30.27,WNW,282,1.0,2.0,98,0.00,,,0.00,Wunderground v.1.15,2013-10-05 04:00:00,
2013-10-05 00:05:00,63.9,63.6,30.27,WNW,282,1.0,2.0,99,0.00,,,0.00,Wunderground v.1.15,2013-10-05 04:05:00,
2013-10-05 00:10:00,63.7,63.4,30.27,WNW,282,0.0,0.0,99,0.00,,,0.00,Wunderground v.1.15,2013-10-05 04:10:00,
2013-10-05 00:15:00,63.5,63.2,30.27,WNW,282,0.0,0.0,99,0.00,,,0.00,Wunderground v.1.15,2013-10-05 04:15:00,
2013-10-05 00:25:00,63.5,63.2,30.27,WNW,282,0.0,0.0,99,0.00,,,0.00,Wunderground v.1.15,2013-10-05 04:25:00,
2013-10-05 00:30:00,63.5,63.2,30.27,WNW,282,0.0,0.0,99,0.00,,,0.00,Wunderground v.1.15,2013-10-05 04:30:00,
2013-10-05 00:35:00,63.5,63.2,30.27,WNW,282,0.0,0.0,99,0.00,,,0.00,Wunderground v.1.15,2013-10-05 04:35:00,
2013-10-05 00:45:00,63.4,63.1,30.27,WNW,282,0.0,0.0,99,0.00,,,0.00,Wunderground v.1.15,2013-10-05 04:45:00,
2013-10-05 00:50:00,63.4,63.1,30.27,WNW,282,0.0,0.0,99,0.00,,,0.00,Wunderground v.1.15,2013-10-05 04:50:00,
2013-10-05 01:00:00,63.4,63.4,30.28,WNW,282,0.0,0.0,100,0.00,,,0.00,Wunderground v.1.15,2013-10-05 05:00:00,
2013-10-05 01:05:00,63.4,63.4,30.27,WNW,282,0.0,0.0,100,0.00,,,0.00,Wunderground v.1.15,2013-10-05 05:05:00,
2013-10-05 01:10:00,63.2,63.2,30.28,WNW,282,0.0,0.0,100,0.00,,,0.00,Wunderground v.1.15,2013-10-05 05:10:00,
2013-10-05 01:20:00,63.2,63.2,30.28,WNW,282,0.0,0.0,100,0.00,,,0.00,Wunderground v.1.15,2013-10-05 05:20:00,
2013-10-05 01:30:00,63.1,63.1,30.28,WNW,282,0.0,0.0,100,0.00,,,0.00,Wunderground v.1.15,2013-10-05 05:30:00,
2013-10-05 01:40:00,63.1,63.1,30.28,WNW,282,0.0,0.0,100,0.00,,,0.00,Wunderground v.1.15,2013-10-05 05:40:00,
2013-10-05 01:50:00,63.1,63.1,30.28,WNW,282,0.0,0.0,100,0.00,,,0.00,Wunderground v.1.15,2013-10-05 05:50:00,
2013-10-05 02:00:00,63.1,63.1,30.28,WNW,282,0.0,0.0,100,0.00,,,0.00,Wunderground v.1.15,2013-10-05 06:00:00,
2013-10-05 02:05:00,63.1,63.1,30.27,WNW,282,0.0,0.0,100,0.00,,,0.00,Wunderground v.1.15,2013-10-05 06:05:00,
2013-10-05 02:15:00,63.1,63.1,30.28,WNW,282,0.0,0.0,100,0.00,,,0.00,Wunderground v.1.15,2013-10-05 06:15:00,
2013-10-05 02:20:00,63.1,63.1,30.28,WNW,282,0.0,0.0,100,0.00,,,0.00,Wunderground v.1.15,2013-10-05 06:20:00,
2013-10-05 02:30:00,62.9,62.9,30.28,WNW,282,0.0,0.0,100,0.00,,,0.00,Wunderground v.1.15,2013-10-05 06:30:00,
2013-10-05 02:40:00,63.1,63.1,30.28,WNW,282,0.0,0.0,100,0.00,,,0.00,Wunderground v.1.15,2013-10-05 06:40:00,
2013-10-05 02:45:00,63.1,63.1,30.27,WNW,282,0.0,0.0,100,0.00,,,0.00,Wunderground v.1.15,2013-10-05 06:45:00,
2013-10-05 02:55:00,63.1,63.1,30.27,WNW,282,0.0,0.0,100,0.00,,,0.00,Wunderground v.1.15,2013-10-05 06:55:00,
2013-10-05 03:05:00,62.9,62.9,30.28,WNW,282,0.0,0.0,100,0.00,,,0.00,Wunderground v.1.15,2013-10-05 07:05:00,
2013-10-05 03:15:00,63.1,63.1,30.27,WNW,282,0.0,0.0,100,0.00,,,0.00,Wunderground v.1.15,2013-10-05 07:15:00,
2013-10-05 03:20:00,63.1,63.1,30.27,WNW,282,0.0,0.0,100,0.00,,,0.00,Wunderground v.1.15,2013-10-05 07:20:00,
2013-10-05 03:30:00,63.1,63.1,30.28,WNW,282,0.0,0.0,100,0.00,,,0.00,Wunderground v.1.15,2013-10-05 07:30:00,
2013-10-05 03:40:00,63.1,63.1,30.28,WNW,282,0.0,0.0,100,0.00,,,0.00,Wunderground v.1.15,2013-10-05 07:40:00,
2013-10-05 03:50:00,62.9,62.9,30.28,WNW,282,0.0,0.0,100,0.00,,,0.00,Wunderground v.1.15,2013-10-05 07:50:00,
2013-10-05 04:00:00,62.9,62.9,30.28,WNW,282,0.0,0.0,100,0.00,,,0.00,Wunderground v.1.15,2013-10-05 08:00:00,
2013-10-05 04:05:00,62.9,62.9,30.28,WNW,282,0.0,0.0,100,0.00,,,0.00,Wunderground v.1.15,2013-10-05 08:05:00,
2013-10-05 04:15:00,62.9,62.9,30.27,WNW,282,0.0,0.0,100,0.00,,,0.00,Wunderground v.1.15,2013-10-05 08:15:00,
2013-10-05 04:25:00,62.6,62.6,30.27,WNW,282,0.0,0.0,100,0.00,,,0.00,Wunderground v.1.15,2013-10-05 08:25:00,
2013-10-05 04:30:00,62.6,62.6,30.28,WNW,282,0.0,0.0,100,0.00,,,0.00,Wunderground v.1.15,2013-10-05 08:30:00,
2013-10-05 04:40:00,62.7,62.7,30.28,WNW,282,0.0,0.0,100,0.00,,,0.00,Wunderground v.1.15,2013-10-05 08:40:00,
2013-10-05 04:50:00,62.7,62.7,30.28,WNW,282,0.0,0.0,100,0.00,,,0.00,Wunderground v.1.15,2013-10-05 08:50:00,
2013-10-05 05:00:00,62.7,62.7,30.28,WNW,282,0.0,0.0,100,0.00,,,0.00,Wunderground v.1.15,2013-10-05 09:00:00,
2013-10-05 05:05:00,62.7,62.7,30.27,WNW,282,0.0,0.0,100,0.00,,,0.00,Wunderground v.1.15,2013-10-05 09:05:00,
2013-10-05 05:15:00,62.7,62.7,30.28,WNW,282,0.0,0.0,100,0.00,,,0.00,Wunderground v.1.15,2013-10-05 09:15:00,
2013-10-05 05:25:00,62.6,62.6,30.28,WNW,282,0.0,0.0,100,0.00,,,0.00,Wunderground v.1.15,2013-10-05 09:25:00,
2013-10-05 05:35:00,62.4,62.4,30.28,WNW,282,0.0,0.0,100,0.00,,,0.00,Wunderground v.1.15,2013-10-05 09:35:00,
2013-10-05 05:40:00,62.4,62.4,30.28,WNW,282,0.0,0.0,100,0.00,,,0.00,Wunderground v.1.15,2013-10-05 09:40:00,
2013-10-05 05:50:00,62.4,62.4,30.28,WNW,282,0.0,0.0,100,0.00,,,0.00,Wunderground v.1.15,2013-10-05 09:50:00,
2013-10-05 06:00:00,62.4,62.4,30.29,WNW,282,0.0,0.0,100,0.00,,,0.00,Wunderground v.1.15,2013-10-05 10:00:00,
2013-10-05 06:05:00,62.3,62.3,30.29,WNW,282,0.0,0.0,100,0.00,,,0.00,Wunderground v.1.15,2013-10-05 10:05:00,
2013-10-05 06:15:00,62.3,62.3,30.29,WNW,282,0.0,0.0,100,0.00,,,0.00,Wunderground v.1.15,2013-10-05 10:15:00,
2013-10-05 06:25:00,62.3,62.3,30.29,WNW,282,0.0,0.0,100,0.00,,,0.00,Wunderground v.1.15,2013-10-05 10:25:00,
2013-10-05 06:35:00,62.3,62.3,30.29,WNW,282,0.0,0.0,100,0.00,,,0.00,Wunderground v.1.15,2013-10-05 10:35:00,
2013-10-05 06:40:00,62.3,62.3,30.29,WNW,282,0.0,0.0,100,0.00,,,0.00,Wunderground v.1.15,2013-10-05 10:40:00,
2013-10-05 06:50:00,62.1,62.1,30.29,WNW,282,0.0,1.0,100,0.00,,,0.00,Wunderground v.1.15,2013-10-05 10:50:00,
2013-10-05 07:00:00,62.0,62.0,30.29,WNW,282,0.0,0.0,100,0.00,,,0.00,Wunderground v.1.15,2013-10-05 11:00:00,
2013-10-05 07:05:00,62.0,62.0,30.29,WNW,282,0.0,0.0,100,0.00,,,0.00,Wunderground v.1.15,2013-10-05 11:05:00,
2013-10-05 07:15:00,61.8,61.8,30.29,WNW,282,0.0,0.0,100,0.00,,,0.00,Wunderground v.1.15,2013-10-05 11:15:00,
2013-10-05 07:25:00,61.8,61.8,30.30,WNW,282,0.0,0.0,100,0.00,,,0.00,Wunderground v.1.15,2013-10-05 11:25:00,
2013-10-05 07:35:00,61.8,61.8,30.29,WNW,282,0.0,0.0,100,0.00,,,0.00,Wunderground v.1.15,2013-10-05 11:35:00,
2013-10-05 07:45:00,61.8,61.8,30.30,WNW,282,0.0,0.0,100,0.00,,,0.00,Wunderground v.1.15,2013-10-05 11:45:00,
2013-10-05 07:55:00,62.0,62.0,30.30,WNW,282,0.0,0.0,100,0.00,,,0.00,Wunderground v.1.15,2013-10-05 11:55:00,
2013-10-05 08:05:00,62.0,62.0,30.30,WNW,282,0.0,0.0,100,0.00,,,0.00,Wunderground v.1.15,2013-10-05 12:05:00,
2013-10-05 08:15:00,62.1,62.1,30.30,WNW,282,0.0,0.0,100,0.00,,,0.00,Wunderground v.1.15,2013-10-05 12:15:00,
2013-10-05 08:20:00,62.3,62.3,30.31,WNW,282,0.0,0.0,100,0.00,,,0.00,Wunderground v.1.15,2013-10-05 12:20:00,
2013-10-05 08:30:00,62.4,62.4,30.31,WNW,282,0.0,0.0,100,0.00,,,0.00,Wunderground v.1.15,2013-10-05 12:30:00,
2013-10-05 08:40:00,62.6,62.6,30.31,WNW,282,0.0,0.0,100,0.00,,,0.00,Wunderground v.1.15,2013-10-05 12:40:00,
2013-10-05 08:45:00,62.7,62.7,30.31,WNW,282,0.0,0.0,100,0.00,,,0.00,Wunderground v.1.15,2013-10-05 12:45:00,
2013-10-05 08:55:00,62.9,62.9,30.32,WNW,282,0.0,0.0,100,0.00,,,0.00,Wunderground v.1.15,2013-10-05 12:55:00,
2013-10-05 09:05:00,62.9,62.9,30.32,WNW,282,0.0,0.0,100,0.00,,,0.00,Wunderground v.1.15,2013-10-05 13:05:00,
2013-10-05 09:15:00,62.7,62.7,30.31,WNW,282,0.0,0.0,100,0.00,,,0.00,Wunderground v.1.15,2013-10-05 13:15:00,
2013-10-05 09:25:00,62.9,62.9,30.31,WNW,282,0.0,2.0,100,0.00,,,0.00,Wunderground v.1.15,2013-10-05 13:25:00,
2013-10-05 09:35:00,62.9,62.9,30.31,WNW,282,1.0,1.0,100,0.00,,,0.00,Wunderground v.1.15,2013-10-05 13:35:00,
2013-10-05 09:45:00,62.9,62.9,30.31,WNW,282,1.0,1.0,100,0.00,,,0.00,Wunderground v.1.15,2013-10-05 13:45:00,
2013-10-05 09:50:00,62.9,62.9,30.31,WNW,282,1.0,1.0,100,0.00,,,0.00,Wunderground v.1.15,2013-10-05 13:50:00,
2013-10-05 10:00:00,63.1,63.1,30.31,WNW,282,0.0,0.0,100,0.00,,,0.00,Wunderground v.1.15,2013-10-05 14:00:00,
2013-10-05 10:05:00,63.2,63.2,30.31,WNW,282,1.0,3.0,100,0.00,,,0.00,Wunderground v.1.15,2013-10-05 14:05:00,
2013-10-05 10:15:00,63.4,63.4,30.31,WNW,282,1.0,2.0,100,0.00,,,0.00,Wunderground v.1.15,2013-10-05 14:15:00,
2013-10-05 10:25:00,63.5,63.5,30.30,WNW,282,0.0,0.0,100,0.00,,,0.00,Wunderground v.1.15,2013-10-05 14:25:00,
2013-10-05 10:30:00,63.7,63.7,30.31,WNW,282,0.0,0.0,100,0.00,,,0.00,Wunderground v.1.15,2013-10-05 14:30:00,
2013-10-05 10:40:00,63.7,63.7,30.31,WNW,282,1.0,1.0,100,0.00,,,0.00,Wunderground v.1.15,2013-10-05 14:40:00,
2013-10-05 10:50:00,63.7,63.7,30.31,WNW,282,1.0,1.0,100,0.00,,,0.00,Wunderground v.1.15,2013-10-05 14:50:00,
2013-10-05 10:55:00,63.9,63.9,30.30,WNW,282,2.0,3.0,100,0.00,,,0.00,Wunderground v.1.15,2013-10-05 14:55:00,
2013-10-05 11:05:00,64.2,64.2,30.30,WNW,282,2.0,4.0,100,0.00,,,0.00,Wunderground v.1.15,2013-10-05 15:05:00,
2013-10-05 11:15:00,64.7,64.7,30.29,WNW,282,2.0,3.0,100,0.00,,,0.00,Wunderground v.1.15,2013-10-05 15:15:00,
2013-10-05 11:25:00,65.0,65.0,30.29,WNW,282,3.0,3.0,100,0.00,,,0.00,Wunderground v.1.15,2013-10-05 15:25:00,
2013-10-05 11:35:00,65.3,65.3,30.29,WNW,282,1.0,2.0,100,0.00,,,0.00,Wunderground v.1.15,2013-10-05 15:35:00,
2013-10-05 11:45:00,65.6,65.6,30.29,WNW,282,0.0,1.0,100,0.00,,,0.00,Wunderground v.1.15,2013-10-05 15:45:00,
2013-10-05 11:55:00,66.3,66.3,30.29,WNW,282,0.0,0.0,100,0.00,,,0.00,Wunderground v.1.15,2013-10-05 15:55:00,
2013-10-05 12:05:00,66.6,66.6,30.29,WNW,282,0.0,0.0,100,0.00,,,0.00,Wunderground v.1.15,2013-10-05 16:05:00,
2013-10-05 12:15:00,66.9,66.9,30.28,WNW,282,0.0,0.0,100,0.00,,,0.00,Wunderground v.1.15,2013-10-05 16:15:00,
2013-10-05 12:25:00,67.3,67.3,30.28,WNW,282,1.0,1.0,100,0.00,,,0.00,Wunderground v.1.15,2013-10-05 16:25:00,
2013-10-05 12:35:00,68.1,67.8,30.28,WNW,282,0.0,0.0,99,0.00,,,0.00,Wunderground v.1.15,2013-10-05 16:35:00,
2013-10-05 12:40:00,68.3,68.0,30.28,WNW,282,0.0,0.0,99,0.00,,,0.00,Wunderground v.1.15,2013-10-05 16:40:00,
2013-10-05 12:50:00,68.3,67.1,30.28,WNW,282,0.0,0.0,96,0.00,,,0.00,Wunderground v.1.15,2013-10-05 16:50:00,
2013-10-05 13:00:00,68.4,66.6,30.28,WNW,282,0.0,0.0,94,0.00,,,0.00,Wunderground v.1.15,2013-10-05 17:00:00,
2013-10-05 13:05:00,68.6,66.8,30.27,WNW,282,0.0,0.0,94,0.00,,,0.00,Wunderground v.1.15,2013-10-05 17:05:00,
2013-10-05 13:10:00,68.8,66.7,30.27,WNW,282,0.0,0.0,93,0.00,,,0.00,Wunderground v.1.15,2013-10-05 17:10:00,
2013-10-05 13:20:00,68.9,66.5,30.27,WNW,282,0.0,0.0,92,0.00,,,0.00,Wunderground v.1.15,2013-10-05 17:20:00,
2013-10-05 13:30:00,68.9,65.8,30.26,WNW,282,0.0,0.0,90,0.00,,,0.00,Wunderground v.1.15,2013-10-05 17:30:00,
2013-10-05 13:40:00,69.3,66.2,30.26,WNW,282,0.0,0.0,90,0.00,,,0.00,Wunderground v.1.15,2013-10-05 17:40:00,
2013-10-05 13:50:00,69.9,66.2,30.26,WNW,282,0.0,0.0,88,0.00,,,0.00,Wunderground v.1.15,2013-10-05 17:50:00,
2013-10-05 14:00:00,70.8,66.7,30.25,WNW,282,0.0,0.0,87,0.00,,,0.00,Wunderground v.1.15,2013-10-05 18:00:00,
2013-10-05 14:05:00,71.3,66.9,30.25,WNW,282,0.0,0.0,86,0.00,,,0.00,Wunderground v.1.15,2013-10-05 18:05:00,
2013-10-05 14:15:00,71.3,66.6,30.25,WNW,282,0.0,0.0,85,0.00,,,0.00,Wunderground v.1.15,2013-10-05 18:15:00,
2013-10-05 14:25:00,71.3,66.9,30.25,WNW,282,0.0,0.0,86,0.00,,,0.00,Wunderground v.1.15,2013-10-05 18:25:00,
2013-10-05 14:35:00,71.6,67.2,30.25,WNW,282,0.0,0.0,86,0.00,,,0.00,Wunderground v.1.15,2013-10-05 18:35:00,
2013-10-05 14:45:00,71.3,66.9,30.25,WNW,282,0.0,0.0,86,0.00,,,0.00,Wunderground v.1.15,2013-10-05 18:45:00,
2013-10-05 14:55:00,71.1,67.0,30.25,WNW,282,0.0,0.0,87,0.00,,,0.00,Wunderground v.1.15,2013-10-05 18:55:00,
2013-10-05 15:05:00,71.5,67.1,30.25,WNW,282,1.0,1.0,86,0.00,,,0.00,Wunderground v.1.15,2013-10-05 19:05:00,
2013-10-05 15:15:00,71.1,66.7,30.25,WNW,282,1.0,1.0,86,0.00,,,0.00,Wunderground v.1.15,2013-10-05 19:15:00,
2013-10-05 15:25:00,70.8,66.4,30.25,WNW,282,1.0,4.0,86,0.00,,,0.00,Wunderground v.1.15,2013-10-05 19:25:00,
2013-10-05 15:35:00,70.1,66.0,30.26,NE,49,1.0,1.0,87,0.00,,,0.00,Wunderground v.1.15,2013-10-05 19:35:00,
2013-10-05 15:45:00,69.4,65.7,30.26,NE,50,1.0,1.0,88,0.00,,,0.00,Wunderground v.1.15,2013-10-05 19:45:00,
2013-10-05 15:50:00,69.1,65.4,30.26,ENE,61,1.0,4.0,88,0.00,,,0.00,Wunderground v.1.15,2013-10-05 19:50:00,
2013-10-05 16:00:00,68.6,65.2,30.26,NE,55,2.0,2.0,89,0.00,,,0.00,Wunderground v.1.15,2013-10-05 20:00:00,
2013-10-05 16:05:00,68.4,65.0,30.26,NE,35,1.0,2.0,89,0.00,,,0.00,Wunderground v.1.15,2013-10-05 20:05:00,
2013-10-05 16:15:00,68.4,65.4,30.26,ENE,71,1.0,1.0,90,0.00,,,0.00,Wunderground v.1.15,2013-10-05 20:15:00,
2013-10-05 16:25:00,68.3,64.9,30.26,NE,43,1.0,1.0,89,0.00,,,0.00,Wunderground v.1.15,2013-10-05 20:25:00,
2013-10-05 16:30:00,68.3,65.3,30.26,NE,44,0.0,0.0,90,0.00,,,0.00,Wunderground v.1.15,2013-10-05 20:30:00,
2013-10-05 16:40:00,67.8,64.8,30.26,NE,42,1.0,1.0,90,0.00,,,0.00,Wunderground v.1.15,2013-10-05 20:40:00,
2013-10-05 16:50:00,67.8,64.8,30.26,NE,40,1.0,2.0,90,0.00,,,0.00,Wunderground v.1.15,2013-10-05 20:50:00,
2013-10-05 16:55:00,67.8,64.4,30.26,NE,43,1.0,2.0,89,0.00,,,0.00,Wunderground v.1.15,2013-10-05 20:55:00,
2013-10-05 17:05:00,67.6,64.2,30.25,ENE,60,2.0,2.0,89,0.00,,,0.00,Wunderground v.1.15,2013-10-05 21:05:00,
2013-10-05 17:15:00,67.8,64.1,30.25,NE,54,0.0,1.0,88,0.00,,,0.00,Wunderground v.1.15,2013-10-05 21:15:00,
2013-10-05 17:25:00,67.1,63.7,30.25,NE,55,0.0,1.0,89,0.00,,,0.00,Wunderground v.1.15,2013-10-05 21:25:00,
2013-10-05 17:35:00,66.6,63.6,30.26,NE,55,0.0,0.0,90,0.00,,,0.00,Wunderground v.1.15,2013-10-05 21:35:00,
2013-10-05 17:45:00,66.4,63.7,30.26,NE,55,0.0,0.0,91,0.00,,,0.00,Wunderground v.1.15,2013-10-05 21:45:00,
2013-10-05 17:55:00,66.3,63.9,30.25,NE,55,0.0,0.0,92,0.00,,,0.00,Wunderground v.1.15,2013-10-05 21:55:00,
2013-10-05 18:00:00,66.1,63.7,30.25,NE,55,0.0,0.0,92,0.00,,,0.00,Wunderground v.1.15,2013-10-05 22:00:00,
2013-10-05 18:05:00,66.0,63.6,30.25,NE,55,0.0,0.0,92,0.00,,,0.00,Wunderground v.1.15,2013-10-05 22:05:00,
2013-10-05 18:15:00,65.8,63.4,30.26,NE,55,0.0,0.0,92,0.00,,,0.00,Wunderground v.1.15,2013-10-05 22:15:00,
2013-10-05 18:25:00,65.3,62.9,30.26,NE,55,0.0,0.0,92,0.00,,,0.00,Wunderground v.1.15,2013-10-05 22:25:00,
2013-10-05 18:35:00,65.0,62.9,30.26,NE,55,0.0,0.0,93,0.00,,,0.00,Wunderground v.1.15,2013-10-05 22:35:00,
2013-10-05 18:45:00,64.5,62.4,30.26,NE,55,0.0,0.0,93,0.00,,,0.00,Wunderground v.1.15,2013-10-05 22:45:00,
2013-10-05 18:55:00,64.2,62.4,30.26,NE,55,0.0,0.0,94,0.00,,,0.00,Wunderground v.1.15,2013-10-05 22:55:00,
2013-10-05 19:05:00,64.0,62.5,30.26,NE,55,0.0,0.0,95,0.00,,,0.00,Wunderground v.1.15,2013-10-05 23:05:00,
2013-10-05 19:15:00,63.7,62.2,30.26,NE,55,0.0,0.0,95,0.00,,,0.00,Wunderground v.1.15,2013-10-05 23:15:00,
2013-10-05 19:25:00,63.5,62.3,30.26,NE,55,0.0,0.0,96,0.00,,,0.00,Wunderground v.1.15,2013-10-05 23:25:00,
2013-10-05 19:35:00,63.4,62.2,30.27,NE,55,0.0,0.0,96,0.00,,,0.00,Wunderground v.1.15,2013-10-05 23:35:00,
2013-10-05 19:45:00,63.2,62.0,30.27,NE,55,0.0,0.0,96,0.00,,,0.00,Wunderground v.1.15,2013-10-05 23:45:00,
2013-10-05 19:55:00,63.1,62.2,30.27,NE,55,0.0,0.0,97,0.00,,,0.00,Wunderground v.1.15,2013-10-05 23:55:00,
2013-10-05 20:05:00,63.1,62.2,30.27,NE,55,0.0,0.0,97,0.00,,,0.00,Wunderground v.1.15,2013-10-06 00:05:00,
2013-10-05 20:15:00,63.1,62.2,30.27,NE,55,0.0,0.0,97,0.00,,,0.00,Wunderground v.1.15,2013-10-06 00:15:00,
2013-10-05 20:25:00,63.1,62.2,30.27,NE,55,0.0,0.0,97,0.00,,,0.00,Wunderground v.1.15,2013-10-06 00:25:00,
2013-10-05 20:35:00,63.1,62.5,30.26,NE,55,0.0,0.0,98,0.21,,,0.06,Wunderground v.1.15,2013-10-06 00:35:00,
2013-10-05 20:45:00,63.1,62.5,30.26,NE,55,0.0,0.0,98,0.05,,,0.06,Wunderground v.1.15,2013-10-06 00:45:00,
2013-10-05 20:55:00,63.1,62.5,30.26,NE,55,0.0,0.0,98,0.00,,,0.06,Wunderground v.1.15,2013-10-06 00:55:00,
2013-10-05 21:05:00,63.2,62.6,30.26,NE,55,0.0,0.0,98,0.00,,,0.06,Wunderground v.1.15,2013-10-06 01:05:00,
2013-10-05 21:15:00,63.1,62.8,30.26,NE,55,0.0,0.0,99,0.00,,,0.06,Wunderground v.1.15,2013-10-06 01:15:00,
2013-10-05 21:25:00,62.9,62.6,30.27,NE,55,0.0,0.0,99,0.00,,,0.06,Wunderground v.1.15,2013-10-06 01:25:00,
2013-10-05 21:35:00,62.9,62.6,30.28,NE,55,0.0,0.0,99,0.00,,,0.06,Wunderground v.1.15,2013-10-06 01:35:00,
2013-10-05 21:45:00,62.9,62.6,30.28,NE,55,0.0,0.0,99,0.00,,,0.06,Wunderground v.1.15,2013-10-06 01:45:00,
2013-10-05 21:55:00,62.7,62.4,30.29,NE,55,0.0,0.0,99,0.00,,,0.06,Wunderground v.1.15,2013-10-06 01:55:00,
2013-10-05 22:05:00,62.7,62.4,30.29,NE,55,0.0,0.0,99,0.00,,,0.06,Wunderground v.1.15,2013-10-06 02:05:00,
2013-10-05 22:15:00,62.7,62.4,30.28,NE,55,0.0,0.0,99,0.10,,,0.08,Wunderground v.1.15,2013-10-06 02:15:00,
2013-10-05 22:20:00,62.7,62.4,30.28,NE,55,0.0,0.0,99,0.10,,,0.08,Wunderground v.1.15,2013-10-06 02:20:00,
2013-10-05 22:30:00,62.6,62.6,30.28,NE,55,0.0,0.0,100,0.04,,,0.08,Wunderground v.1.15,2013-10-06 02:30:00,
2013-10-05 22:40:00,62.6,62.6,30.27,NE,55,0.0,0.0,100,0.00,,,0.08,Wunderground v.1.15,2013-10-06 02:40:00,
2013-10-05 22:45:00,62.6,62.6,30.27,NE,55,0.0,0.0,100,0.00,,,0.08,Wunderground v.1.15,2013-10-06 02:45:00,
2013-10-05 22:55:00,62.7,62.7,30.26,NE,55,0.0,0.0,100,0.00,,,0.08,Wunderground v.1.15,2013-10-06 02:55:00,
2013-10-05 23:05:00,62.6,62.6,30.27,NE,55,0.0,0.0,100,0.00,,,0.08,Wunderground v.1.15,2013-10-06 03:05:00,
2013-10-05 23:15:00,62.6,62.6,30.27,NE,55,0.0,0.0,100,0.00,,,0.08,Wunderground v.1.15,2013-10-06 03:15:00,
2013-10-05 23:25:00,62.7,62.7,30.27,NE,55,0.0,0.0,100,0.00,,,0.08,Wunderground v.1.15,2013-10-06 03:25:00,
2013-10-05 23:35:00,62.6,62.6,30.26,NE,55,0.0,0.0,100,0.00,,,0.08,Wunderground v.1.15,2013-10-06 03:35:00,
2013-10-05 23:45:00,62.6,62.6,30.26,NE,55,0.0,0.0,100,0.00,,,0.08,Wunderground v.1.15,2013-10-06 03:45:00,
2013-10-05 23:50:00,62.6,62.6,30.26,NE,55,0.0,0.0,100,0.00,,,0.08,Wunderground v.1.15,2013-10-06 03:50:00,